Location: Unspecified
(0.0000°N, 0.0000°E)
Time: 09:23:25
(UTC+00:00)

A-11 Canister half - Pass Details

Date: 13 June 2024
Orbit: 1515 x 1684 km, 47.2° (Epoch: 23 July)

Event Time Altitude Azimuth Distance (km) Brightness Sun altitude
Rises 05:16:21 0° 317° (NW) 4,663 11.3 -10.1°
Reaches altitude 10° 05:19:23 10° 315° (NW) 3,673 10.8 -9.4°
Maximum altitude 05:28:35 76° 231° (SW) 1,554 8.9 -7.3°
Drops below altitude 10° 05:37:52 10° 146° (SE) 3,700 11.2 -5.1°
Sets 05:40:57 0° 144° (SE) 4,699 11.7 -4.4°
